Location: Castle
(40.7167°S, 175.9500°E)
Time: 02:53:19
(UTC+00:00)

SKYMED 2 - Pass Details

Date: 04 August 2024
Orbit: 621 x 623 km, 97.9° (Epoch: 07 September)

Event Time Altitude Azimuth Distance (km) Brightness Sun altitude
Rises 18:18:17 0° 167° (SSE) 2,946 7.1 -11.7°
Reaches altitude 10° 18:20:30 10° 166° (SSE) 2,031 6.2 -11.3°
Maximum altitude 18:24:56 82° 79° (E) 646 3.7 -10.5°
Drops below altitude 10° 18:29:19 10° 349° (N) 2,003 6.2 -9.7°
Sets 18:31:29 0° 348° (NNW) 2,902 7.0 -9.3°
